Lid_Strength_Index
1 0 -1 -1 -1 -2 -2 -2 -2 -2 -2 -2 -2 -2 -2 -2 -2 -2 -2 -2 -2 -2 -2 -2 -2 -2 -2 -2 -2 -2 -2 -2 -2 -2 -2 -2 -2 -2 -2 -2 -2 -1 -2
0 -0 -1 -1 -1 -1 -2 -2 -2 -2 -2 -2 -2 -2 -2 -2 -2 -2 -2 -2 -2 -2 -2 -2 -2 -2 -2 -2 -2 -2 -2 -2 -2 -2 -2 -2 -2 -2 -2 -2 -2 -1 -2
-0 -0 -1 -1 -1 -1 -2 -2 -2 -2 -2 -2 -2 -2 -2 -2 -2 -2 -2 -2 -2 -2 -2 -2 -2 -2 -2 -2 -2 -2 -2 -2 -2 -2 -2 1 0 -2 -2 -2 -2 -2 -2
-0 -0 -0 -1 -2 -1 -2 -2 -2 -2 -2 -2 -2 -2 -2 -2 -2 -2 -2 -2 -2 -2 -2 -2 -2 -2 -2 -2 -2 -2 -2 -2 -2 -2 1 -0 -1 -2 -2 -2 -2 -1 -2
-0 -0 -0 -1 -2 -1 -2 -2 -2 -2 -2 -2 -2 -2 -2 -2 -2 -2 -2 -2 -2 -2 -2 -2 -2 -2 -2 -2 -2 -2 -2 -2 -2 -0 -1 -1 0 -1 -2 -2 -1 -1 -2
0 -0 -1 -1 -2 -2 -2 -2 -2 -2 -2 -2 -2 -2 -2 -2 -2 -2 -2 -2 -2 -2 -2 -2 -2 -2 -2 -2 -2 -2 -2 -2 -1 1 1 -0 -0 -2 -2 -2 -2 -2 -2
0 0 -0 -1 -2 -2 -2 -2 -2 -2 -2 -2 -2 -1 -1 -2 -2 -2 -2 -2 -2 -2 -2 -2 -2 -2 -2 -2 -2 -2 -2 -1 1 1 1 1 -0 -2 -2 -2 -2 -2 -2
0 0 -0 0 -1 -1 -2 -2 -2 -2 -2 -2 -2 -2 -2 -2 -2 -2 -2 -2 -2 -2 -2 -2 -2 -2 -2 -2 -2 -2 -1 -0 1 1 1 1 -2 -2 -2 -2 -2 -2 -2
0 0 0 0 0 0 -1 -1 -1 -2 -2 -2 -2 -2 -2 -2 -2 -2 -2 -2 -2 -2 -2 -2 -2 -2 -2 -2 -2 -1 -1 -0 2 1 -0 1 -2 -2 -2 -2 -2 -1 -1
1 0 0 0 0 0 0 1 0 -1 -1 -2 -2 -1 -1 -1 -1 -2 -1 -2 -2 -2 -2 -2 -2 -2 -2 -2 -2 -1 -1 -0 1 1 1 1 -2 -2 -2 -1 -1 -1 -1
1 1 1 0 0 1 1 1 1 -0 -0 -0 -0 1 1 1 0 0 -0 -2 -2 -2 -2 -2 -1 -1 -1 -1 -1 -1 0 1 1 1 1 -2 -2 -2 -1 -1 -0 -1 -0
2 2 2 1 1 0 -0 1 1 1 1 1 1 2 2 2 1 0 1 -1 -2 -2 -2 -1 -1 -1 0 1 1 0 1 1 0 -1 1 -2 -2 -2 -1 -1 -0 0 0
1 1 2 1 1 1 1 2 2 2 1 2 1 1 2 2 2 2 1 1 1 1 1 1 1 1 1 1 2 2 2 2 1 1 0 -1 -1 -1 -0 -0 0 0 0
2 2 2 2 1 2 1 2 2 2 2 2 2 1 3 4 4 3 2 2 2 2 2 2 2 2 2 1 1 2 2 1 1 2 2 1 -1 -0 -1 0 1 1 1
2 1 2 2 1 1 2 1 2 2 2 2 2 1 3 4 5 4 3 3 3 2 2 2 2 2 2 1 1 1 1 1 3 3 4 2 0 -1 -0 0 1 1 1
2 1 1 2 1 1 1 2 1 2 2 2 2 2 3 4 4 4 2 2 2 2 2 2 2 2 2 1 1 0 1 2 3 4 4 3 1 0 1 1 1 1 1
2 1 1 2 2 2 1 2 2 2 2 2 1 2 2 3 3 2 2 2 2 2 2 2 2 2 3 2 1 1 1 2 4 5 5 5 5 2 2 2 2 2 2
3 2 2 1 2 2 2 2 2 2 2 2 1 2 2 2 2 2 2 2 2 2 2 2 2 3 3 3 2 1 2 3 5 6 6 6 7 7 5 3 3 3 3
2 2 2 2 2 3 2 2 3 3 3 3 2 2 2 2 1 2 2 2 2 2 2 2 3 3 3 3 3 3 4 4 6 6 6 7 8 9 8 5 5 4 4
3 2 2 2 2 2 3 3 4 3 4 3 3 2 2 2 1 2 2 2 2 3 3 3 3 3 3 3 3 5 6 8 8 7 7 8 10 11 10 10 10 9 5
4 3 2 2 2 2 3 4 5 4 3 4 3 2 1 1 1 2 2 2 2 3 3 3 3 4 3 2 4 6 8 9 9 9 9 10 11 12 11 12 12 11 10
3 3 3 2 2 1 1 2 4 3 4 3 3 2 1 1 1 2 2 2 2 3 3 3 3 4 3 2 4 5 9 9 9 9 10 11 12 12 12 12 12 12 12
3 3 3 2 2 2 1 3 4 4 4 4 4 3 1 1 1 2 2 2 2 3 3 4 4 3 3 2 3 4 7 8 10 11 11 11 12 13 12 12 12 13 13
3 2 3 3 2 2 2 2 2 3 3 3 2 2 2 1 1 1 2 2 2 2 3 3 3 2 2 3 3 3 5 6 8 11 11 11 11 12 13 13 13 13 13
2 2 2 3 3 2 2 2 2 3 2 2 3 4 2 2 1 1 2 2 2 3 2 2 3 2 1 2 3 5 7 8 8 9 11 12 12 12 13 13 13 13 13
2 2 2 3 3 3 3 2 3 3 2 3 3 3 3 2 1 1 1 1 2 2 3 3 2 2 2 1 3 5 6 7 8 10 11 14 12 12 13 13 13 13 13